This demonstration page uses our WeatherBlox Daily Observations layout. Learn more.

Left ArrowRight Arrow

39.92423, -83.80882

Hourly Observations for February 3, 2019

Temp ( °F °C ) Dew Point ( °F °C ) Humidity (%) Winds ( mph kmh ) Pressure ( in mb ) Visibility ( mi km ) Precip ( " mm )
12:56 am 00:56 Clear 36 2.2 36 2.2 100 100 S 6 9 30.1 1019 9 14.48406 N/A
1:56 am 01:56 Clear 36 2.2 36 2.2 100 100 S 6 9 30.09 1019 9 14.48406 N/A
2:56 am 02:56 Clear 38 3.3 37 2.8 97 97 SSW 6 9 30.08 1019 10 16.0934 N/A
3:56 am 03:56 Clear 40 4.4 37 2.8 89 89 S 7 11 30.06 1018 10 16.0934 N/A
4:56 am 04:56 Cloudy 41 5 36 2.2 82 82 SSW 8 13 30.06 1018 10 16.0934 N/A
5:56 am 05:56 Cloudy 41 5 36 2.2 82 82 SSW 8 13 30.06 1018 10 16.0934 N/A
6:56 am 06:56 Cloudy 41 5 36 2.2 82 82 SSW 6 9 30.08 1019 10 16.0934 N/A
7:56 am 07:56 Cloudy 42 5.6 35 1.7 76 76 S 7 11 30.08 1019 10 16.0934 N/A
8:56 am 08:56 Cloudy 42 5.6 35 1.7 76 76 SSW 6 9 30.08 1019 10 16.0934 N/A
9:56 am 09:56 Cloudy 42 5.6 36 2.2 79 79 SSW 6 9 30.07 1018 10 16.0934 N/A
10:56 am 10:56 Cloudy 46 7.8 36 2.2 68 68 SSW 7 11 30.07 1018 10 16.0934 N/A
11:56 am 11:56 Cloudy 47 8.3 38 3.3 71 71 SW 10 17 30.06 1018 10 16.0934 N/A
12:56 pm 12:56 Mostly Sunny 52 11.1 40 4.4 64 64 SSW 7 11 30.02 1017 10 16.0934 N/A
1:56 pm 13:56 Sunny 55 12.8 42 5.6 62 62 SSW 7 11 30 1016 10 16.0934 N/A
2:56 pm 14:56 Mostly Sunny 56 13.3 44 6.7 65 65 SSW 8 13 29.98 1015 10 16.0934 N/A
3:56 pm 15:56 Sunny 56 13.3 45 7.2 67 67 SSE 7 11 29.98 1015 10 16.0934 N/A
4:56 pm 16:56 Sunny 53 11.7 46 7.8 77 77 SE 8 13 29.98 1015 10 16.0934 N/A
5:56 pm 17:56 Sunny 50 10 43 6.1 77 77 SSE 9 15 29.98 1015 10 16.0934 N/A
6:56 pm 18:56 Clear 49 9.4 43 6.1 80 80 SSE 7 11 29.98 1015 10 16.0934 N/A
7:56 pm 19:56 Clear 49 9.4 42 5.6 77 77 S 8 13 29.98 1015 10 16.0934 N/A
8:56 pm 20:56 Clear 50 10 41 5 71 71 S 8 13 29.98 1015 10 16.0934 N/A
9:56 pm 21:56 Clear 49 9.4 40 4.4 71 71 S 9 15 29.98 1015 10 16.0934 N/A
10:56 pm 22:56 Clear 49 9.4 40 4.4 71 71 S 10 17 29.98 1015 10 16.0934 N/A
11:56 pm 23:56 Clear 48 8.9 40 4.4 74 74 SSW 7 11 29.97 1015 10 16.0934 N/A

Powered by AerisWeather